Time,TemperatureF,DewpointF,PressureIn,WindDirection,WindDirectionDegrees,WindSpeedMPH,WindSpeedGustMPH,Humidity,HourlyPrecipIn,Conditions,Clouds,dailyrainin,SoftwareType,DateUTC
2013-11-11 00:02:00,44.6,13.5,29.68,West,260,3.6,5.4,28,0.00,,---,0.00,VWS V12.07,2013-11-11 05:02:00,
2013-11-11 00:05:00,44.6,13.5,29.68,WSW,246,3.1,5.4,28,0.00,,---,0.00,VWS V12.07,2013-11-11 05:05:00,
2013-11-11 00:08:00,44.6,13.5,29.68,West,260,5.8,8.3,28,0.00,,---,0.00,VWS V12.07,2013-11-11 05:08:00,
2013-11-11 00:11:00,44.4,13.4,29.68,West,267,3.1,8.7,28,0.00,,---,0.00,VWS V12.07,2013-11-11 05:11:00,
2013-11-11 00:17:00,44.4,13.4,29.68,SW,235,4.0,4.0,28,0.00,,---,0.00,VWS V12.07,2013-11-11 05:17:00,
2013-11-11 00:23:00,44.2,14.0,29.68,WSW,245,5.8,10.1,29,0.00,,---,0.00,VWS V12.07,2013-11-11 05:23:00,
2013-11-11 00:29:00,43.9,13.7,29.68,SSW,193,3.1,11.0,29,0.00,,---,0.00,VWS V12.07,2013-11-11 05:29:00,
2013-11-11 00:35:00,43.7,13.5,29.68,WNW,282,5.8,7.6,29,0.00,,---,0.00,VWS V12.07,2013-11-11 05:35:00,
2013-11-11 00:41:00,43.5,13.4,29.68,SSW,192,8.1,12.8,29,0.00,,---,0.00,VWS V12.07,2013-11-11 05:41:00,
2013-11-11 00:47:00,43.3,13.2,29.68,WSW,238,3.6,8.3,29,0.00,,---,0.00,VWS V12.07,2013-11-11 05:47:00,
2013-11-11 00:53:00,43.0,12.9,29.68,North,353,8.7,8.7,29,0.00,,---,0.00,VWS V12.07,2013-11-11 05:53:00,
2013-11-11 00:59:00,42.8,12.8,29.71,WNW,283,3.6,8.7,29,0.00,,---,0.00,VWS V12.07,2013-11-11 05:59:00,
2013-11-11 01:05:00,42.4,13.2,29.71,SW,225,3.1,10.1,30,0.00,,---,0.00,VWS V12.07,2013-11-11 06:05:00,
2013-11-11 01:11:00,42.4,13.2,29.71,SSW,207,4.9,11.4,30,0.00,,---,0.00,VWS V12.07,2013-11-11 06:11:00,
2013-11-11 01:19:00,42.3,13.1,29.71,SSW,196,8.1,11.9,30,0.00,,---,0.00,VWS V12.07,2013-11-11 06:19:00,
2013-11-11 01:25:00,42.3,13.1,29.74,WSW,243,5.8,11.9,30,0.00,,---,0.00,VWS V12.07,2013-11-11 06:25:00,
2013-11-11 01:31:00,42.1,12.1,29.74,WSW,256,3.6,8.1,29,0.00,,---,0.00,VWS V12.07,2013-11-11 06:31:00,
2013-11-11 01:37:00,42.1,12.1,29.74,SW,233,5.4,8.1,29,0.00,,---,0.00,VWS V12.07,2013-11-11 06:37:00,
2013-11-11 01:43:00,42.1,12.1,29.74,West,265,3.1,10.5,29,0.00,,---,0.00,VWS V12.07,2013-11-11 06:43:00,
2013-11-11 01:49:00,42.1,12.1,29.74,SW,234,3.1,10.1,29,0.00,,---,0.00,VWS V12.07,2013-11-11 06:49:00,
2013-11-11 01:55:00,42.1,12.1,29.74,WNW,295,0.0,11.0,29,0.00,,---,0.00,VWS V12.07,2013-11-11 06:55:00,
2013-11-11 02:01:00,42.1,12.1,29.74,SW,224,5.4,8.1,29,0.00,,---,0.00,VWS V12.07,2013-11-11 07:01:00,
2013-11-11 02:07:00,42.1,12.1,29.74,SSW,208,6.3,12.8,29,0.00,,---,0.00,VWS V12.07,2013-11-11 07:07:00,
2013-11-11 02:13:00,42.1,12.1,29.74,SSW,203,3.1,12.8,29,0.00,,---,0.00,VWS V12.07,2013-11-11 07:13:00,
2013-11-11 02:19:00,41.9,12.0,29.74,SSW,195,5.8,8.3,29,0.00,,---,0.00,VWS V12.07,2013-11-11 07:19:00,
2013-11-11 02:25:00,41.7,11.8,29.74,SW,236,4.5,8.7,29,0.00,,---,0.00,VWS V12.07,2013-11-11 07:25:00,
2013-11-11 02:31:00,41.7,11.8,29.74,WSW,249,6.3,6.3,29,0.00,,---,0.00,VWS V12.07,2013-11-11 07:31:00,
2013-11-11 02:37:00,41.7,11.8,29.74,NE,36,3.6,8.3,29,0.00,,---,0.00,VWS V12.07,2013-11-11 07:37:00,
2013-11-11 02:43:00,41.5,11.7,29.77,WSW,247,5.8,8.3,29,0.00,,---,0.00,VWS V12.07,2013-11-11 07:43:00,
2013-11-11 02:48:00,41.5,11.7,29.77,WSW,249,3.1,8.3,29,0.00,,---,0.00,VWS V12.07,2013-11-11 07:48:00,
2013-11-11 02:54:00,41.5,10.9,29.77,WSW,254,5.8,8.3,28,0.00,,---,0.00,VWS V12.07,2013-11-11 07:54:00,
2013-11-11 03:00:00,41.5,10.9,29.77,SW,235,7.6,7.6,28,0.00,,---,0.00,VWS V12.07,2013-11-11 08:00:00,
2013-11-11 03:08:00,41.5,10.9,29.77,WNW,285,4.0,8.1,28,0.00,,---,0.00,VWS V12.07,2013-11-11 08:08:00,
2013-11-11 03:14:00,41.4,10.7,29.77,WSW,242,3.1,8.7,28,0.00,,---,0.00,VWS V12.07,2013-11-11 08:14:00,
2013-11-11 03:19:00,41.4,10.7,29.77,West,261,3.1,10.1,28,0.00,,---,0.00,VWS V12.07,2013-11-11 08:19:00,
2013-11-11 03:25:00,41.2,10.6,29.77,SW,234,4.0,10.1,28,0.00,,---,0.00,VWS V12.07,2013-11-11 08:25:00,
2013-11-11 03:31:00,41.2,10.6,29.77,SW,225,3.1,7.6,28,0.00,,---,0.00,VWS V12.07,2013-11-11 08:31:00,
2013-11-11 03:37:00,41.2,10.6,29.77,WSW,245,4.0,8.3,28,0.00,,---,0.00,VWS V12.07,2013-11-11 08:37:00,
2013-11-11 03:43:00,41.2,10.6,29.77,West,273,2.7,8.7,28,0.00,,---,0.00,VWS V12.07,2013-11-11 08:43:00,
2013-11-11 03:49:00,41.2,10.6,29.77,SW,232,5.4,9.6,28,0.00,,---,0.00,VWS V12.07,2013-11-11 08:49:00,
2013-11-11 03:55:00,41.0,10.4,29.77,WNW,293,4.0,9.6,28,0.00,,---,0.00,VWS V12.07,2013-11-11 08:55:00,
2013-11-11 04:01:00,41.0,10.4,29.77,West,260,3.6,8.7,28,0.00,,---,0.00,VWS V12.07,2013-11-11 09:01:00,
2013-11-11 04:07:00,41.0,10.4,29.77,SSW,208,4.9,8.7,28,0.00,,---,0.00,VWS V12.07,2013-11-11 09:07:00,
2013-11-11 04:13:00,40.8,11.0,29.80,SSW,212,4.0,8.7,29,0.00,,---,0.00,VWS V12.07,2013-11-11 09:13:00,
2013-11-11 04:19:00,40.6,10.9,29.80,West,259,5.4,5.4,29,0.00,,---,0.00,VWS V12.07,2013-11-11 09:19:00,
2013-11-11 04:25:00,40.6,10.9,29.80,NNE,16,7.2,11.9,29,0.00,,---,0.00,VWS V12.07,2013-11-11 09:25:00,
2013-11-11 04:31:00,40.6,10.9,29.80,WSW,251,5.4,5.4,29,0.00,,---,0.00,VWS V12.07,2013-11-11 09:31:00,
2013-11-11 04:37:00,40.6,10.9,29.80,SSE,166,5.4,10.1,29,0.00,,---,0.00,VWS V12.07,2013-11-11 09:37:00,
2013-11-11 04:43:00,40.6,10.9,29.80,SW,217,3.6,10.1,29,0.00,,---,0.00,VWS V12.07,2013-11-11 09:43:00,
2013-11-11 04:49:00,40.6,10.9,29.80,West,265,6.3,8.3,29,0.00,,---,0.00,VWS V12.07,2013-11-11 09:49:00,
2013-11-11 04:55:00,40.5,10.7,29.83,SSW,213,3.6,8.3,29,0.00,,---,0.00,VWS V12.07,2013-11-11 09:55:00,
2013-11-11 05:01:00,40.3,10.6,29.83,SW,217,3.1,4.0,29,0.00,,---,0.00,VWS V12.07,2013-11-11 10:01:00,
2013-11-11 05:07:00,40.1,10.4,29.83,SSW,211,6.3,6.3,29,0.00,,---,0.00,VWS V12.07,2013-11-11 10:07:00,
2013-11-11 05:13:00,39.9,10.2,29.83,WSW,246,4.9,9.6,29,0.00,,---,0.00,VWS V12.07,2013-11-11 10:13:00,
2013-11-11 05:19:00,39.9,10.2,29.83,South,178,4.9,6.7,29,0.00,,---,0.00,VWS V12.07,2013-11-11 10:19:00,
2013-11-11 05:25:00,39.9,10.2,29.83,ENE,61,4.9,6.7,29,0.00,,---,0.00,VWS V12.07,2013-11-11 10:25:00,
2013-11-11 05:33:00,39.9,10.2,29.83,West,277,4.9,7.6,29,0.00,,---,0.00,VWS V12.07,2013-11-11 10:33:00,
2013-11-11 05:39:00,40.1,10.4,29.83,SSW,198,0.0,11.0,29,0.00,,---,0.00,VWS V12.07,2013-11-11 10:39:00,
2013-11-11 05:45:00,40.3,9.8,29.85,South,173,0.0,0.0,28,0.00,,---,0.00,VWS V12.07,2013-11-11 10:45:00,
2013-11-11 05:51:00,40.1,9.6,29.85,North,1,2.2,5.4,28,0.00,,---,0.00,VWS V12.07,2013-11-11 10:51:00,
2013-11-11 05:57:00,39.9,9.5,29.85,WNW,299,0.0,8.1,28,0.00,,---,0.00,VWS V12.07,2013-11-11 10:57:00,
2013-11-11 06:03:00,39.9,9.5,29.85,NW,306,0.0,6.3,28,0.00,,---,0.00,VWS V12.07,2013-11-11 11:03:00,
2013-11-11 06:09:00,39.7,9.3,29.85,SSW,197,0.0,6.3,28,0.00,,---,0.00,VWS V12.07,2013-11-11 11:09:00,
2013-11-11 06:17:00,39.4,9.0,29.85,SSW,211,0.0,3.1,28,0.00,,---,0.00,VWS V12.07,2013-11-11 11:17:00,
2013-11-11 06:23:00,39.4,9.8,29.85,SW,234,2.7,6.3,29,0.00,,---,0.00,VWS V12.07,2013-11-11 11:23:00,
2013-11-11 06:29:00,39.2,9.6,29.85,WNW,285,0.0,6.3,29,0.00,,---,0.00,VWS V12.07,2013-11-11 11:29:00,
2013-11-11 06:35:00,39.2,9.6,29.85,East,98,2.7,4.0,29,0.00,,---,0.00,VWS V12.07,2013-11-11 11:35:00,
2013-11-11 06:41:00,39.0,9.5,29.85,WNW,299,3.1,4.0,29,0.00,,---,0.00,VWS V12.07,2013-11-11 11:41:00,
2013-11-11 06:47:00,38.8,9.3,29.85,WSW,249,0.0,4.0,29,0.00,,---,0.00,VWS V12.07,2013-11-11 11:47:00,
2013-11-11 06:53:00,38.8,9.3,29.85,WSW,244,5.4,5.4,29,0.00,,---,0.00,VWS V12.07,2013-11-11 11:53:00,
2013-11-11 06:59:00,39.0,9.5,29.88,NW,313,3.1,6.3,29,0.00,,---,0.00,VWS V12.07,2013-11-11 11:59:00,
2013-11-11 07:05:00,39.0,9.5,29.88,South,185,3.1,8.3,29,0.00,,---,0.00,VWS V12.07,2013-11-11 12:05:00,
2013-11-11 07:11:00,39.4,9.8,29.91,SSW,199,0.0,8.3,29,0.00,,---,0.00,VWS V12.07,2013-11-11 12:11:00,
2013-11-11 07:17:00,39.4,9.8,29.91,SW,217,2.2,3.6,29,0.00,,---,0.00,VWS V12.07,2013-11-11 12:17:00,
2013-11-11 07:23:00,39.6,9.9,29.91,SSW,206,2.7,6.3,29,0.00,,---,0.00,VWS V12.07,2013-11-11 12:23:00,
2013-11-11 07:29:00,39.7,10.1,29.91,SW,214,2.7,6.3,29,0.00,,---,0.00,VWS V12.07,2013-11-11 12:29:00,
2013-11-11 07:35:00,39.7,10.1,29.91,WNW,291,0.0,5.8,29,0.00,,---,0.00,VWS V12.07,2013-11-11 12:35:00,
2013-11-11 07:41:00,39.9,10.2,29.91,WSW,243,3.6,6.7,29,0.00,,---,0.00,VWS V12.07,2013-11-11 12:41:00,
2013-11-11 07:49:00,40.1,10.4,29.91,ENE,66,3.1,7.2,29,0.00,,---,0.00,VWS V12.07,2013-11-11 12:49:00,
2013-11-11 07:55:00,40.5,10.7,29.91,West,259,0.0,8.3,29,0.00,,---,0.00,VWS V12.07,2013-11-11 12:55:00,
2013-11-11 08:01:00,40.6,10.9,29.91,NNW,338,0.0,5.8,29,0.00,,---,0.00,VWS V12.07,2013-11-11 13:01:00,
2013-11-11 08:07:00,40.8,10.2,29.91,SSW,203,3.1,6.3,28,0.00,,---,0.00,VWS V12.07,2013-11-11 13:07:00,
2013-11-11 08:13:00,41.0,10.4,29.91,WSW,255,0.0,8.7,28,0.00,,---,0.00,VWS V12.07,2013-11-11 13:13:00,
2013-11-11 08:19:00,41.2,10.6,29.91,WSW,244,2.7,6.3,28,0.00,,---,0.00,VWS V12.07,2013-11-11 13:19:00,
2013-11-11 08:25:00,41.5,10.9,29.91,North,2,0.0,11.0,28,0.00,,---,0.00,VWS V12.07,2013-11-11 13:25:00,
2013-11-11 08:31:00,41.7,11.0,29.91,West,275,5.8,5.8,28,0.00,,---,0.00,VWS V12.07,2013-11-11 13:31:00,
2013-11-11 08:37:00,41.9,11.2,29.91,SW,235,4.0,6.3,28,0.00,,---,0.00,VWS V12.07,2013-11-11 13:37:00,
2013-11-11 08:43:00,42.3,11.5,29.91,West,265,4.0,7.2,28,0.00,,---,0.00,VWS V12.07,2013-11-11 13:43:00,
2013-11-11 08:49:00,43.3,12.4,29.91,South,169,4.9,5.8,28,0.00,,---,0.00,VWS V12.07,2013-11-11 13:49:00,
2013-11-11 08:55:00,44.4,13.4,29.91,West,262,3.1,6.3,28,0.00,,---,0.00,VWS V12.07,2013-11-11 13:55:00,
2013-11-11 09:00:00,45.1,11.4,29.91,WSW,245,3.1,3.1,25,0.00,,---,0.00,VWS V12.07,2013-11-11 14:00:00,
2013-11-11 09:06:00,45.7,11.9,29.91,WSW,253,10.5,10.5,25,0.00,,---,0.00,VWS V12.07,2013-11-11 14:06:00,
2013-11-11 09:12:00,46.4,11.6,29.94,North,353,4.0,10.5,24,0.00,,---,0.00,VWS V12.07,2013-11-11 14:12:00,
2013-11-11 09:18:00,47.3,12.4,29.94,WSW,255,3.1,7.6,24,0.00,,---,0.00,VWS V12.07,2013-11-11 14:18:00,
2013-11-11 09:24:00,48.0,13.0,29.94,SSW,211,8.1,8.7,24,0.00,,---,0.00,VWS V12.07,2013-11-11 14:24:00,
2013-11-11 09:30:00,48.6,13.4,29.94,WSW,249,7.6,7.6,24,0.00,,---,0.00,VWS V12.07,2013-11-11 14:30:00,
2013-11-11 09:36:00,48.9,13.7,29.94,WSW,253,5.4,8.1,24,0.00,,---,0.00,VWS V12.07,2013-11-11 14:36:00,
2013-11-11 09:43:00,49.5,14.2,29.94,SW,220,3.1,8.7,24,0.00,,---,0.00,VWS V12.07,2013-11-11 14:43:00,
2013-11-11 09:49:00,49.8,14.5,29.94,West,262,3.1,7.2,24,0.00,,---,0.00,VWS V12.07,2013-11-11 14:49:00,
2013-11-11 09:54:00,50.0,14.6,29.94,West,261,3.6,7.2,24,0.00,,---,0.00,VWS V12.07,2013-11-11 14:54:00,
2013-11-11 10:00:00,50.4,11.9,29.94,SW,219,3.6,8.1,21,0.00,,---,0.00,VWS V12.07,2013-11-11 15:00:00,
2013-11-11 10:06:00,50.5,15.1,29.94,SSW,200,6.7,8.7,24,0.00,,---,0.00,VWS V12.07,2013-11-11 15:06:00,
2013-11-11 10:12:00,50.9,12.4,29.94,West,262,3.6,10.5,21,0.00,,---,0.00,VWS V12.07,2013-11-11 15:12:00,
2013-11-11 10:18:00,50.9,12.4,29.94,SW,225,4.0,5.8,21,0.00,,---,0.00,VWS V12.07,2013-11-11 15:18:00,
2013-11-11 10:24:00,50.9,12.4,29.94,NW,305,5.4,8.7,21,0.00,,---,0.00,VWS V12.07,2013-11-11 15:24:00,
2013-11-11 10:30:00,50.5,12.1,29.94,SW,235,3.6,8.7,21,0.00,,---,0.00,VWS V12.07,2013-11-11 15:30:00,
2013-11-11 10:36:00,50.2,11.8,29.94,WSW,248,5.4,8.1,21,0.00,,---,0.00,VWS V12.07,2013-11-11 15:36:00,
2013-11-11 10:42:00,49.5,11.2,29.91,SSW,206,5.4,10.1,21,0.00,,---,0.00,VWS V12.07,2013-11-11 15:42:00,
2013-11-11 10:48:00,48.6,10.4,29.91,WSW,250,3.6,7.6,21,0.00,,---,0.00,VWS V12.07,2013-11-11 15:48:00,
2013-11-11 10:54:00,48.4,10.3,29.91,NNW,348,4.0,8.3,21,0.00,,---,0.00,VWS V12.07,2013-11-11 15:54:00,
2013-11-11 11:00:00,48.2,10.1,29.91,SSW,204,7.6,8.1,21,0.00,,---,0.00,VWS V12.07,2013-11-11 16:00:00,
2013-11-11 11:05:00,48.2,10.1,29.91,SW,222,2.7,8.1,21,0.00,,---,0.00,VWS V12.07,2013-11-11 16:05:00,
2013-11-11 11:11:00,48.6,10.4,29.91,West,259,2.7,8.1,21,0.00,,---,0.00,VWS V12.07,2013-11-11 16:11:00,
2013-11-11 11:17:00,48.7,10.6,29.91,West,263,8.3,10.5,21,0.00,,---,0.00,VWS V12.07,2013-11-11 16:17:00,
2013-11-11 11:23:00,48.6,10.4,29.91,SW,215,6.7,10.5,21,0.00,,---,0.00,VWS V12.07,2013-11-11 16:23:00,
2013-11-11 11:28:00,48.4,10.3,29.91,North,353,3.1,10.5,21,0.00,,---,0.00,VWS V12.07,2013-11-11 16:28:00,
2013-11-11 11:34:00,48.4,10.3,29.91,WSW,239,6.3,6.3,21,0.00,,---,0.00,VWS V12.07,2013-11-11 16:34:00,
2013-11-11 11:40:00,48.4,10.3,29.91,WSW,238,4.0,8.3,21,0.00,,---,0.00,VWS V12.07,2013-11-11 16:40:00,
2013-11-11 11:46:00,48.7,10.6,29.91,South,181,3.6,5.8,21,0.00,,---,0.00,VWS V12.07,2013-11-11 16:46:00,
2013-11-11 11:52:00,48.7,10.6,29.91,WSW,254,3.1,8.1,21,0.00,,---,0.00,VWS V12.07,2013-11-11 16:52:00,
2013-11-11 11:58:00,49.1,10.9,29.88,WSW,238,3.1,8.1,21,0.00,,---,0.00,VWS V12.07,2013-11-11 16:58:00,
2013-11-11 12:04:00,49.5,11.2,29.88,WNW,296,4.0,10.5,21,0.00,,---,0.00,VWS V12.07,2013-11-11 17:04:00,
2013-11-11 12:10:00,49.6,11.3,29.88,SSE,151,0.0,10.5,21,0.00,,---,0.00,VWS V12.07,2013-11-11 17:10:00,
2013-11-11 12:16:00,49.6,11.3,29.88,WSW,242,3.1,4.9,21,0.00,,---,0.00,VWS V12.07,2013-11-11 17:16:00,
2013-11-11 12:22:00,49.6,11.3,29.88,WSW,244,6.3,8.1,21,0.00,,---,0.00,VWS V12.07,2013-11-11 17:22:00,
2013-11-11 12:28:00,49.6,11.3,29.88,SW,231,3.1,8.1,21,0.00,,---,0.00,VWS V12.07,2013-11-11 17:28:00,
2013-11-11 12:34:00,50.0,11.6,29.88,SSW,211,5.8,8.7,21,0.00,,---,0.00,VWS V12.07,2013-11-11 17:34:00,
2013-11-11 12:40:00,50.0,11.6,29.88,West,267,5.8,8.7,21,0.00,,---,0.00,VWS V12.07,2013-11-11 17:40:00,
2013-11-11 12:46:00,49.8,11.5,29.88,WSW,253,5.8,5.8,21,0.00,,---,0.00,VWS V12.07,2013-11-11 17:46:00,
2013-11-11 12:52:00,49.8,11.5,29.88,SW,231,6.3,10.1,21,0.00,,---,0.00,VWS V12.07,2013-11-11 17:52:00,
2013-11-11 12:58:00,50.2,11.8,29.85,WSW,247,2.7,10.1,21,0.00,,---,0.00,VWS V12.07,2013-11-11 17:58:00,
2013-11-11 13:04:00,50.7,12.2,29.85,South,177,5.4,8.1,21,0.00,,---,0.00,VWS V12.07,2013-11-11 18:04:00,
2013-11-11 13:10:00,51.1,12.5,29.85,NW,316,6.7,8.1,21,0.00,,---,0.00,VWS V12.07,2013-11-11 18:10:00,
2013-11-11 13:16:00,51.6,13.0,29.85,WSW,237,7.6,7.6,21,0.00,,---,0.00,VWS V12.07,2013-11-11 18:16:00,
2013-11-11 13:22:00,51.8,13.1,29.85,WSW,258,5.4,7.6,21,0.00,,---,0.00,VWS V12.07,2013-11-11 18:22:00,
2013-11-11 13:28:00,51.8,13.1,29.85,WSW,238,6.3,8.3,21,0.00,,---,0.00,VWS V12.07,2013-11-11 18:28:00,
2013-11-11 13:34:00,51.6,13.0,29.85,WSW,243,4.0,10.5,21,0.00,,---,0.00,VWS V12.07,2013-11-11 18:34:00,
2013-11-11 13:40:00,52.2,13.4,29.83,SW,220,3.6,10.5,21,0.00,,---,0.00,VWS V12.07,2013-11-11 18:40:00,
2013-11-11 13:46:00,52.5,13.7,29.83,WSW,254,4.0,8.7,21,0.00,,---,0.00,VWS V12.07,2013-11-11 18:46:00,
2013-11-11 13:52:00,53.1,14.2,29.83,West,271,3.1,8.7,21,0.00,,---,0.00,VWS V12.07,2013-11-11 18:52:00,
2013-11-11 13:58:00,53.6,13.5,29.83,West,265,5.4,8.7,20,0.00,,---,0.00,VWS V12.07,2013-11-11 18:58:00,
2013-11-11 14:04:00,54.0,13.8,29.83,SW,230,4.0,8.7,20,0.00,,---,0.00,VWS V12.07,2013-11-11 19:04:00,
2013-11-11 14:10:00,54.3,14.1,29.83,West,261,3.1,8.7,20,0.00,,---,0.00,VWS V12.07,2013-11-11 19:10:00,
2013-11-11 14:16:00,54.3,14.1,29.83,WSW,256,8.1,8.1,20,0.00,,---,0.00,VWS V12.07,2013-11-11 19:16:00,
2013-11-11 14:22:00,54.0,13.8,29.83,WSW,244,8.3,8.7,20,0.00,,---,0.00,VWS V12.07,2013-11-11 19:22:00,
2013-11-11 14:28:00,53.4,14.5,29.83,West,259,5.4,8.7,21,0.00,,---,0.00,VWS V12.07,2013-11-11 19:28:00,
2013-11-11 14:34:00,53.2,14.3,29.83,West,265,5.4,5.8,21,0.00,,---,0.00,VWS V12.07,2013-11-11 19:34:00,
2013-11-11 14:40:00,53.1,14.2,29.83,SW,228,5.4,6.3,21,0.00,,---,0.00,VWS V12.07,2013-11-11 19:40:00,
2013-11-11 14:46:00,53.1,14.2,29.83,SW,232,6.3,8.7,21,0.00,,---,0.00,VWS V12.07,2013-11-11 19:46:00,
2013-11-11 14:52:00,52.7,13.9,29.83,West,260,5.8,8.7,21,0.00,,---,0.00,VWS V12.07,2013-11-11 19:52:00,
2013-11-11 14:58:00,52.2,13.4,29.83,WSW,243,5.4,12.3,21,0.00,,---,0.00,VWS V12.07,2013-11-11 19:58:00,
2013-11-11 15:04:00,52.0,13.3,29.83,WSW,248,4.0,6.3,21,0.00,,---,0.00,VWS V12.07,2013-11-11 20:04:00,
2013-11-11 15:10:00,51.6,13.0,29.83,West,279,3.6,8.3,21,0.00,,---,0.00,VWS V12.07,2013-11-11 20:10:00,
2013-11-11 15:16:00,51.4,12.8,29.83,SW,231,3.1,4.0,21,0.00,,---,0.00,VWS V12.07,2013-11-11 20:16:00,
2013-11-11 15:22:00,51.3,12.7,29.83,WSW,240,4.0,7.6,21,0.00,,---,0.00,VWS V12.07,2013-11-11 20:22:00,
2013-11-11 15:30:00,51.1,12.5,29.83,SW,221,4.9,4.9,21,0.00,,---,0.00,VWS V12.07,2013-11-11 20:30:00,
2013-11-11 15:35:00,51.1,12.5,29.83,WSW,246,5.4,8.1,21,0.00,,---,0.00,VWS V12.07,2013-11-11 20:35:00,
2013-11-11 15:41:00,50.9,12.4,29.83,SW,228,2.7,8.1,21,0.00,,---,0.00,VWS V12.07,2013-11-11 20:41:00,
2013-11-11 15:47:00,50.9,12.4,29.83,WSW,253,7.6,10.5,21,0.00,,---,0.00,VWS V12.07,2013-11-11 20:47:00,
2013-11-11 15:54:00,50.7,12.2,29.83,West,280,4.9,10.5,21,0.00,,---,0.00,VWS V12.07,2013-11-11 20:54:00,
2013-11-11 16:00:00,50.7,12.2,29.83,WSW,258,3.6,4.0,21,0.00,,---,0.00,VWS V12.07,2013-11-11 21:00:00,
2013-11-11 16:06:00,50.7,12.2,29.83,WSW,249,5.4,6.3,21,0.00,,---,0.00,VWS V12.07,2013-11-11 21:06:00,
2013-11-11 16:12:00,50.5,12.1,29.83,WSW,252,2.7,7.6,21,0.00,,---,0.00,VWS V12.07,2013-11-11 21:12:00,
2013-11-11 16:18:00,50.5,12.1,29.83,WSW,253,2.7,5.4,21,0.00,,---,0.00,VWS V12.07,2013-11-11 21:18:00,
2013-11-11 16:24:00,50.5,12.1,29.83,SW,232,3.6,7.6,21,0.00,,---,0.00,VWS V12.07,2013-11-11 21:24:00,
2013-11-11 16:29:00,50.4,11.9,29.80,WSW,255,3.6,7.6,21,0.00,,---,0.00,VWS V12.07,2013-11-11 21:29:00,
2013-11-11 16:35:00,50.4,11.9,29.80,WSW,249,6.3,6.3,21,0.00,,---,0.00,VWS V12.07,2013-11-11 21:35:00,
2013-11-11 16:41:00,50.4,11.9,29.83,WSW,247,4.9,8.7,21,0.00,,---,0.00,VWS V12.07,2013-11-11 21:41:00,
2013-11-11 16:47:00,50.2,11.8,29.83,West,273,6.3,6.3,21,0.00,,---,0.00,VWS V12.07,2013-11-11 21:47:00,
2013-11-11 16:53:00,50.2,11.8,29.83,SW,233,2.7,6.3,21,0.00,,---,0.00,VWS V12.07,2013-11-11 21:53:00,
2013-11-11 16:59:00,50.2,11.8,29.83,West,270,0.0,8.7,21,0.00,,---,0.00,VWS V12.07,2013-11-11 21:59:00,
2013-11-11 17:05:00,50.0,11.6,29.83,West,278,2.2,4.9,21,0.00,,---,0.00,VWS V12.07,2013-11-11 22:05:00,
2013-11-11 17:11:00,50.0,11.6,29.83,WSW,253,0.0,4.9,21,0.00,,---,0.00,VWS V12.07,2013-11-11 22:11:00,
2013-11-11 17:17:00,49.8,11.5,29.83,WSW,243,0.0,0.0,21,0.00,,---,0.00,VWS V12.07,2013-11-11 22:17:00,
2013-11-11 17:23:00,49.5,11.2,29.83,WSW,241,0.0,4.0,21,0.00,,---,0.00,VWS V12.07,2013-11-11 22:23:00,
2013-11-11 17:29:00,49.1,10.9,29.83,West,263,0.0,4.0,21,0.00,,---,0.00,VWS V12.07,2013-11-11 22:29:00,
2013-11-11 17:35:00,48.7,10.6,29.83,West,263,0.0,0.0,21,0.00,,---,0.00,VWS V12.07,2013-11-11 22:35:00,
2013-11-11 17:40:00,48.4,10.3,29.83,West,263,0.0,0.0,21,0.00,,---,0.00,VWS V12.07,2013-11-11 22:40:00,
2013-11-11 17:46:00,48.2,10.1,29.83,West,263,0.0,0.0,21,0.00,,---,0.00,VWS V12.07,2013-11-11 22:46:00,
2013-11-11 17:52:00,48.0,11.0,29.83,West,263,0.0,0.0,22,0.00,,---,0.00,VWS V12.07,2013-11-11 22:52:00,
2013-11-11 17:58:00,48.0,11.0,29.80,WSW,246,0.0,0.0,22,0.00,,---,0.00,VWS V12.07,2013-11-11 22:58:00,
2013-11-11 18:04:00,48.2,10.1,29.80,WSW,246,0.0,0.0,21,0.00,,---,0.00,VWS V12.07,2013-11-11 23:04:00,
2013-11-11 18:10:00,48.2,10.1,29.80,WSW,238,0.0,0.0,21,0.00,,---,0.00,VWS V12.07,2013-11-11 23:10:00,
2013-11-11 18:16:00,48.4,10.3,29.80,SW,232,0.0,0.0,21,0.00,,---,0.00,VWS V12.07,2013-11-11 23:16:00,
2013-11-11 18:22:00,48.6,10.4,29.80,WSW,242,0.0,0.0,21,0.00,,---,0.00,VWS V12.07,2013-11-11 23:22:00,
2013-11-11 18:28:00,48.6,10.4,29.80,SW,228,0.0,0.0,21,0.00,,---,0.00,VWS V12.07,2013-11-11 23:28:00,
2013-11-11 18:35:00,48.7,10.6,29.80,SW,236,0.0,4.9,21,0.00,,---,0.00,VWS V12.07,2013-11-11 23:35:00,
2013-11-11 18:41:00,48.7,10.6,29.80,SW,235,4.9,4.9,21,0.00,,---,0.00,VWS V12.07,2013-11-11 23:41:00,
2013-11-11 18:47:00,48.9,10.7,29.80,WSW,245,2.7,3.6,21,0.00,,---,0.00,VWS V12.07,2013-11-11 23:47:00,
2013-11-11 18:53:00,48.9,10.7,29.80,WSW,256,4.0,4.9,21,0.00,,---,0.00,VWS V12.07,2013-11-11 23:53:00,
2013-11-11 18:59:00,48.9,10.7,29.80,SW,229,4.9,7.6,21,0.00,,---,0.00,VWS V12.07,2013-11-11 23:59:00,
2013-11-11 19:05:00,48.9,10.7,29.80,SW,232,4.9,5.4,21,0.00,,---,0.00,VWS V12.07,2013-11-12 00:05:00,
2013-11-11 19:11:00,48.9,10.7,29.80,SW,228,5.4,6.3,21,0.00,,---,0.00,VWS V12.07,2013-11-12 00:11:00,
2013-11-11 19:17:00,48.7,10.6,29.80,WSW,252,4.0,8.3,21,0.00,,---,0.00,VWS V12.07,2013-11-12 00:17:00,
2013-11-11 19:22:00,48.7,10.6,29.80,WSW,244,4.9,8.3,21,0.00,,---,0.00,VWS V12.07,2013-11-12 00:22:00,
2013-11-11 19:28:00,48.7,10.6,29.80,WSW,242,3.6,8.3,21,0.00,,---,0.00,VWS V12.07,2013-11-12 00:28:00,
2013-11-11 19:34:00,48.7,10.6,29.80,WSW,254,4.0,11.0,21,0.00,,---,0.00,VWS V12.07,2013-11-12 00:34:00,
2013-11-11 19:42:00,48.6,10.4,29.80,West,269,10.1,13.2,21,0.00,,---,0.00,VWS V12.07,2013-11-12 00:42:00,
2013-11-11 19:48:00,48.6,10.4,29.80,West,261,2.7,6.3,21,0.00,,---,0.00,VWS V12.07,2013-11-12 00:48:00,
2013-11-11 19:54:00,48.6,10.4,29.80,West,263,5.4,6.3,21,0.00,,---,0.00,VWS V12.07,2013-11-12 00:54:00,
2013-11-11 20:01:00,48.6,10.4,29.80,WSW,241,5.4,6.3,21,0.00,,---,0.00,VWS V12.07,2013-11-12 01:01:00,
2013-11-11 20:07:00,48.6,10.4,29.80,SW,235,8.7,8.7,21,0.00,,---,0.00,VWS V12.07,2013-11-12 01:07:00,
2013-11-11 20:13:00,48.4,10.3,29.80,SW,224,3.6,8.7,21,0.00,,---,0.00,VWS V12.07,2013-11-12 01:13:00,
2013-11-11 20:19:00,48.4,10.3,29.80,WSW,249,2.7,6.3,21,0.00,,---,0.00,VWS V12.07,2013-11-12 01:19:00,
2013-11-11 20:24:00,48.4,10.3,29.80,NW,305,3.6,7.2,21,0.00,,---,0.00,VWS V12.07,2013-11-12 01:24:00,
2013-11-11 20:30:00,48.4,10.3,29.80,WSW,253,6.3,6.3,21,0.00,,---,0.00,VWS V12.07,2013-11-12 01:30:00,
2013-11-11 20:36:00,48.2,10.1,29.80,SW,229,5.4,6.7,21,0.00,,---,0.00,VWS V12.07,2013-11-12 01:36:00,
2013-11-11 20:42:00,48.2,10.1,29.77,SW,216,4.0,6.7,21,0.00,,---,0.00,VWS V12.07,2013-11-12 01:42:00,
2013-11-11 20:48:00,48.2,10.1,29.77,SW,236,3.6,8.1,21,0.00,,---,0.00,VWS V12.07,2013-11-12 01:48:00,
2013-11-11 20:54:00,48.2,10.1,29.77,West,270,3.6,8.1,21,0.00,,---,0.00,VWS V12.07,2013-11-12 01:54:00,
2013-11-11 21:00:00,48.2,10.1,29.77,SSW,210,3.6,4.9,21,0.00,,---,0.00,VWS V12.07,2013-11-12 02:00:00,
2013-11-11 21:06:00,48.2,10.1,29.77,West,268,8.1,8.1,21,0.00,,---,0.00,VWS V12.07,2013-11-12 02:06:00,
2013-11-11 21:12:00,48.2,10.1,29.77,WSW,250,2.7,8.1,21,0.00,,---,0.00,VWS V12.07,2013-11-12 02:12:00,
2013-11-11 21:18:00,48.2,10.1,29.77,West,279,5.8,6.3,21,0.00,,---,0.00,VWS V12.07,2013-11-12 02:18:00,
2013-11-11 21:24:00,48.0,11.0,29.77,West,269,4.9,6.3,22,0.00,,---,0.00,VWS V12.07,2013-11-12 02:24:00,
2013-11-11 21:30:00,48.0,11.0,29.77,SW,214,2.7,2.7,22,0.00,,---,0.00,VWS V12.07,2013-11-12 02:30:00,
2013-11-11 21:36:00,48.0,11.0,29.77,SW,236,5.8,6.3,22,0.00,,---,0.00,VWS V12.07,2013-11-12 02:36:00,
2013-11-11 21:41:00,48.0,11.0,29.77,West,277,4.0,6.3,22,0.00,,---,0.00,VWS V12.07,2013-11-12 02:41:00,
2013-11-11 21:47:00,48.0,11.0,29.77,SW,231,3.6,6.3,22,0.00,,---,0.00,VWS V12.07,2013-11-12 02:47:00,
2013-11-11 21:53:00,48.2,13.1,29.77,WSW,237,4.0,7.6,24,0.00,,---,0.00,VWS V12.07,2013-11-12 02:53:00,
2013-11-11 21:59:00,48.2,13.1,29.77,SW,217,3.1,7.6,24,0.00,,---,0.00,VWS V12.07,2013-11-12 02:59:00,
2013-11-11 22:05:00,48.2,13.1,29.77,WSW,249,2.7,6.3,24,0.00,,---,0.00,VWS V12.07,2013-11-12 03:05:00,
2013-11-11 22:11:00,48.2,13.1,29.77,WSW,253,3.1,6.3,24,0.00,,---,0.00,VWS V12.07,2013-11-12 03:11:00,
2013-11-11 22:17:00,48.2,13.1,29.77,WSW,237,7.6,7.6,24,0.00,,---,0.00,VWS V12.07,2013-11-12 03:17:00,
2013-11-11 22:23:00,48.2,13.1,29.77,SW,222,2.2,7.6,24,0.00,,---,0.00,VWS V12.07,2013-11-12 03:23:00,
2013-11-11 22:29:00,48.2,13.1,29.77,WSW,243,2.7,7.6,24,0.00,,---,0.00,VWS V12.07,2013-11-12 03:29:00,
2013-11-11 22:35:00,48.2,13.1,29.77,SW,217,3.6,5.4,24,0.00,,---,0.00,VWS V12.07,2013-11-12 03:35:00,
2013-11-11 22:41:00,48.2,13.1,29.74,WSW,241,3.1,5.4,24,0.00,,---,0.00,VWS V12.07,2013-11-12 03:41:00,
2013-11-11 22:47:00,48.2,13.1,29.74,WNW,283,4.0,5.4,24,0.00,,---,0.00,VWS V12.07,2013-11-12 03:47:00,
2013-11-11 22:53:00,48.2,13.1,29.74,WSW,243,4.0,5.8,24,0.00,,---,0.00,VWS V12.07,2013-11-12 03:53:00,
2013-11-11 22:59:00,48.2,13.1,29.74,WSW,239,3.1,6.7,24,0.00,,---,0.00,VWS V12.07,2013-11-12 03:59:00,
2013-11-11 23:05:00,48.2,13.1,29.74,SSW,202,3.6,5.8,24,0.00,,---,0.00,VWS V12.07,2013-11-12 04:05:00,
2013-11-11 23:11:00,48.2,13.1,29.74,SSW,208,2.2,5.8,24,0.00,,---,0.00,VWS V12.07,2013-11-12 04:11:00,
2013-11-11 23:17:00,48.2,13.1,29.74,West,265,0.0,4.0,24,0.00,,---,0.00,VWS V12.07,2013-11-12 04:17:00,
2013-11-11 23:23:00,48.2,13.1,29.74,WNW,287,5.8,5.8,24,0.00,,---,0.00,VWS V12.07,2013-11-12 04:23:00,
2013-11-11 23:29:00,48.2,13.1,29.74,WSW,238,2.2,5.8,24,0.00,,---,0.00,VWS V12.07,2013-11-12 04:29:00,
2013-11-11 23:35:00,48.2,13.1,29.74,WSW,247,2.2,3.1,24,0.00,,---,0.00,VWS V12.07,2013-11-12 04:35:00,
2013-11-11 23:40:00,48.2,13.1,29.74,SW,217,2.2,5.4,24,0.00,,---,0.00,VWS V12.07,2013-11-12 04:40:00,
2013-11-11 23:46:00,48.2,13.1,29.74,WSW,243,3.6,4.5,24,0.00,,---,0.00,VWS V12.07,2013-11-12 04:46:00,
2013-11-11 23:51:00,48.2,13.1,29.74,SW,231,2.7,5.4,24,0.00,,---,0.00,VWS V12.07,2013-11-12 04:51:00,
2013-11-11 23:57:00,48.2,13.1,29.74,WSW,250,0.0,6.3,24,0.00,,---,0.00,VWS V12.07,2013-11-12 04:57:00,